Location: Bonningues
(50.7927°N, 2.0150°E)
Time: 16:32:05
(UTC+00:00)

deb Kosmos-1763 - Pass Details

Date: 08 August 2020
Orbit: 463 x 478 km, 74.0° (Epoch: 19 September)

Event Time Altitude Azimuth Distance (km) Brightness Sun altitude
Exits shadow 21:15:33 12° 196° (SSW) 1,521 6.3 -14.6°
Maximum altitude 21:18:52 74° 113° (ESE) 498 3.9 -14.9°
Drops below altitude 10° 21:22:31 10° 27° (NNE) 1,656 7.1 -15.3°
Sets 21:24:39 0° 26° (NNE) 2,542 8.1 -15.5°
